Regional Weather Roundup
Issued by NWS

Home | Current Version | Previous Version | Graphics & Text | Print | Product List | Glossary On
Versions: 1 2 3 4 5 6 7 8 9 10 11 12 13 14 15 16 17 18 19 20 21 22 23 24 25 26 27 28 29 30 31 32 33 34 35 36 37 38 39 40 41 42 43 44 45 46 47 48 49 50
000
ASUS44 KMEG 051500
RWRTN
TENNESSEE HOURLY STATE WEATHER ROUNDUP
NATIONAL WEATHER SERVICE MEMPHIS TN
900 AM CST THU MAR 05 2015

TNZ002-004-019-021-049-052-054-088>092-051600-
WEST TENNESSEE

CITY           SKY/WX    TMP DP  RH WIND       PRES   REMARKS
MEMPHIS INTL   CLOUDY    23  15  71 N13       30.46R WCI  11
NWS MEMPHIS      N/A     22 N/A N/A MISG        N/A
JACKSON        CLOUDY    20  13  74 N13       30.43R WCI   7
DYERSBURG      CLOUDY    21   3  45 N13       30.48R WCI   9
UNION CITY       N/A     19  10  68 N12       30.45R WCI   7
PARIS            N/A     18   9  68 N9        30.41R WCI   6
LEXINGTON      PTSUNNY   19  16  86 N14       30.34S WCI   6
SAVANNAH       CLOUDY    21  18  86 N8        30.33R WCI  12
$$

TNZ008-025-027-028-033-062-065-066-051600-
NORTH MIDDLE TENNESSEE

CITY           SKY/WX    TMP DP  RH WIND       PRES   REMARKS
NASHVILLE      FLURRIES  22  18  85 N12       30.34R WCI  10
CLARKSVILLE    CLOUDY    19  14  81 N17       30.39R HAZE    WCI   4
COOKEVILLE     CLOUDY    25  21  86 N8        30.22R WCI  16
CROSSVILLE     LGT SNOW  25  22  88 N12       30.13R FOG     WCI  14
$$

TNZ061-075-076-078-094-096-097-051600-
SOUTH MIDDLE TENNESSEE

CITY           SKY/WX    TMP DP  RH WIND       PRES   REMARKS
FAYETTEVILLE   CLOUDY    21  19  93 N8          N/A  WCI  12
TULLAHOMA      CLOUDY    23  19  86 N14         N/A  WCI  11
WINCHESTER     PTSUNNY   27  25  93 NW10      30.22R WCI  17
COLUMBIA       CLOUDY   N/A N/A N/A N6        30.30F
SHELBYVILLE    CLOUDY    25  21  86 N9        30.29R WCI  15
$$

TNZ017-018-042-046-047-051600-
NORTHEAST TENNESSEE

CITY           SKY/WX    TMP DP  RH WIND       PRES   REMARKS
TRI CITIES     LGT RAIN  34  32  92 N12       30.09R FOG     WCI  25
ELIZABETHTON   LGT RAIN  36  34  93 CALM      30.04R FOG
$$

TNZ012-013-036-069-073-074-051600-
CENTRAL EAST TENNESSEE

CITY           SKY/WX    TMP DP  RH WIND       PRES   REMARKS
KNOXVILLE      SLEET     32  30  92 N13       30.15R WCI  22
OAK RIDGE      LGT SNOW  33  30  88 E9        30.16R FOG     WCI  25
GATLINBURG     CLOUDY    36  34  93 N8        30.12R WCI  29
$$

TNZ083-085-099-051600-
SOUTHEAST TENNESSEE

CITY           SKY/WX    TMP DP  RH WIND       PRES   REMARKS
CHATTANOOGA    LGT RAIN  37  34  89 N10       30.18R WCI  30
$$

SKY/WX REPORTED AS FAIR MEANS FEW OR NO CLOUDS BELOW
12 THOUSAND FEET.



USA.gov is the U.S. government's official web portal to all federal, state and local government web resources and services.